This is the latest recevied weather packets stored in our database for station/object OK1PHM-12. If no packets are shown the sender has not sent any weather packets the latest 10 day(s).
| Time | Temp. | Humidity | Pressure | Rain* | Wind** | Luminosity | Snow |
|---|---|---|---|---|---|---|---|
| 1777838061 | 21.11° C | 39% | 1015 hPa | - | - | - | - |
| 1777837160 | 19.44° C | 42% | 1015.2 hPa | - | - | - | - |
| 1777836259 | 19.44° C | 42% | 1015.3 hPa | - | - | - | - |
| 1777835359 | 20° C | 41% | 1015.2 hPa | - | - | - | - |
| 1777834458 | 20.56° C | 41% | 1015.1 hPa | - | - | - | - |
| 1777833556 | 21.11° C | 40% | 1015.1 hPa | - | - | - | - |
| 1777832655 | 21.67° C | 38% | 1015 hPa | - | - | - | - |
| 1777831754 | 22.22° C | 37% | 1014.9 hPa | - | - | - | - |
| 1777830854 | 22.78° C | 36% | 1014.9 hPa | - | - | - | - |
| 1777829953 | 22.78° C | 35% | 1015 hPa | - | - | - | - |
| 1777829052 | 23.33° C | 33% | 1015 hPa | - | - | - | - |
| 1777828151 | 23.89° C | 33% | 1015 hPa | - | - | - | - |
| 1777827250 | 24.44° C | 32% | 1015 hPa | - | - | - | - |
| 1777826349 | 24.44° C | 31% | 1015.1 hPa | - | - | - | - |
| 1777825449 | 24.44° C | 31% | 1015 hPa | - | - | - | - |
| 1777824548 | 24.44° C | 31% | 1015.2 hPa | - | - | - | - |
| 1777823647 | 25° C | 30% | 1015.1 hPa | - | - | - | - |
| 1777822746 | 25.56° C | 29% | 1015.2 hPa | - | - | - | - |
| 1777821845 | 25° C | 30% | 1015.2 hPa | - | - | - | - |
| 1777820944 | 25° C | 29% | 1015.5 hPa | - | - | - | - |
| 1777820044 | 25.56° C | 28% | 1015.7 hPa | - | - | - | - |
| 1777819143 | 25.56° C | 29% | 1015.8 hPa | - | - | - | - |
| 1777818242 | 25.56° C | 29% | 1015.9 hPa | - | - | - | - |
| 1777817341 | 25.56° C | 28% | 1015.9 hPa | - | - | - | - |
| 1777816440 | 25.56° C | 29% | 1016.1 hPa | - | - | - | - |
* Rain since midnight (hover to see other rain measurements)
** Current wind speed in m/s (hover to see current wind gust speed)